LEWIN-WX Weather Reports


time (UTC)temp
F
wind
direction
speed
knots
gust
knots
rain 1hr
in
rain 24hr
in
rain mn
in
humidity
%
barometer
mb
20260905145316 69 294 13.0 0.0 0.00 0.00 0.00 64 1011.3
20260905142317 70 297 15.6 0.0 0.00 0.00 0.00 64 1011.3
20260905135316 70 292 15.6 0.0 0.00 0.00 0.00 64 1011.3
20260905132317 70 298 14.8 0.0 0.00 0.00 0.00 64 1011.3
20260905122317 70 284 13.0 0.0 0.00 0.00 0.00 64 1011.3
20260905115317 70 282 13.0 0.0 0.00 0.00 0.00 64 1011.3
20260905112317 70 290 14.8 0.0 0.00 0.00 0.00 64 1011.3
20260905105316 69 290 14.8 0.0 0.00 0.00 0.00 64 1011.3
20260905102318 68 291 16.5 0.0 0.00 0.00 0.00 64 1011.3
20260905095317 67 291 15.6 0.0 0.00 0.00 0.00 64 1011.3
20260905092317 66 289 14.8 0.0 0.00 0.00 0.00 64 1011.3
20260905085317 65 288 13.9 0.0 0.00 0.00 0.00 64 1011.3
20260905082317 65 289 13.0 0.0 0.00 0.00 0.00 64 1011.3
20260905075317 64 283 11.3 0.0 0.00 0.00 0.00 64 1011.3
20260905072317 64 278 12.2 0.0 0.00 0.00 0.00 64 1011.3
20260905065317 63 275 11.3 0.0 0.00 0.00 0.00 64 1011.3
20260905062317 62 273 9.6 0.0 0.00 0.00 0.00 64 1011.3
20260905055317 62 273 9.6 0.0 0.00 0.00 0.00 64 1011.3
20260905052316 62 272 10.4 0.0 0.00 0.00 0.00 64 1011.3
20260905045319 61 271 10.4 0.0 0.00 0.00 0.00 64 1011.3
20260905042316 61 266 8.7 0.0 0.00 0.00 0.00 64 1011.3
20260905035317 61 262 7.8 0.0 0.00 0.00 0.00 64 1011.3
20260905032316 61 258 8.7 0.0 0.00 0.00 0.00 64 1011.3
20260905025317 61 261 7.8 0.0 0.00 0.00 0.00 64 1011.3
20260905022319 61 269 7.8 0.0 0.00 0.00 0.00 64 1011.3
20260905015317 61 267 8.7 0.0 0.00 0.00 0.00 64 1011.3
20260905012316 62 266 8.7 0.0 0.00 0.00 0.00 64 1011.3
20260905005317 62 272 9.6 0.0 0.00 0.00 0.00 64 1011.3
20260905002316 63 282 11.3 0.0 0.00 0.00 0.00 64 1011.3
20260904235318 63 285 10.4 0.0 0.00 0.00 0.00 64 1011.3
20260904232317 64 278 7.8 0.0 0.00 0.00 0.00 64 1011.3
20260904225317 65 281 8.7 0.0 0.00 0.00 0.00 64 1011.3
20260904222317 67 298 9.6 0.0 0.00 0.00 0.00 67 1010.6
20260904215316 68 299 9.6 0.0 0.00 0.00 0.00 64 1016.3
20260904212316 69 297 11.3 0.0 0.00 0.00 0.00 64 1016.3
20260904205317 70 303 11.3 0.0 0.00 0.00 0.00 64 1016.3
20260904202316 72 314 11.3 0.0 0.00 0.00 0.00 64 1016.3
20260904195316 73 305 8.7 0.0 0.00 0.00 0.00 64 1016.3
20260904192318 73 247 8.7 0.0 0.00 0.00 0.00 64 1016.3
20260904185318 75 217 10.4 0.0 0.00 0.00 0.00 64 1016.3
20260904182317 75 219 9.6 0.0 0.00 0.00 0.00 64 1016.3
20260904175317 75 224 9.6 0.0 0.00 0.00 0.00 64 1016.3
20260904172317 77 233 9.6 0.0 0.00 0.00 0.00 64 1016.3
20260904165317 77 238 9.6 0.0 0.00 0.00 0.00 64 1016.3
20260904162316 78 246 11.3 0.0 0.00 0.00 0.00 64 1016.3
20260904155320 78 244 12.2 0.0 0.00 0.00 0.00 64 1016.3
20260904152317 78 243 12.2 0.0 0.00 0.00 0.00 64 1016.3